This is the latest recevied weather packets stored in our database for station/object KD8JAM. If no packets are shown the sender has not sent any weather packets the latest 10 day(s).
| Time | Temp. | Humidity | Pressure | Rain* | Wind** | Luminosity | Snow |
|---|---|---|---|---|---|---|---|
| 1777923533 | 9.44° C | 75% | 994.9 hPa | 0 mm | - | 719 W/m² | - |
| 1777923230 | 8.89° C | 74% | 995.1 hPa | 0 mm | - | 766 W/m² | - |
| 1777922929 | 8.89° C | 76% | 994.8 hPa | 0 mm | - | 371 W/m² | - |
| 1777922626 | 8.33° C | 77% | 995 hPa | 0 mm | - | 643 W/m² | - |
| 1777922325 | 8.33° C | 79% | 995 hPa | 0 mm | - | 312 W/m² | - |
| 1777922022 | 8.89° C | 77% | 994.9 hPa | 0 mm | - | 496 W/m² | - |
| 1777921718 | 8.33° C | 79% | 994.9 hPa | 0 mm | - | 666 W/m² | - |
| 1777921413 | 8.33° C | 80% | 994.8 hPa | 0 mm | - | 281 W/m² | - |
| 1777921110 | 8.33° C | 81% | 994.7 hPa | 0 mm | - | 361 W/m² | - |
| 1777920807 | 7.78° C | 83% | 994.6 hPa | 0 mm | - | 335 W/m² | - |
| 1777920504 | 8.33° C | 82% | 994.4 hPa | 0 mm | - | 276 W/m² | - |
| 1777920199 | 8.89° C | 81% | 994.4 hPa | 0 mm | - | 407 W/m² | - |
| 1777919895 | 9.44° C | 80% | 994.4 hPa | 0 mm | - | 777 W/m² | - |
| 1777919593 | 9.44° C | 81% | 994.3 hPa | 0 mm | - | 904 W/m² | - |
| 1777919291 | 9.44° C | 80% | 994.3 hPa | 0 mm | - | 655 W/m² | - |
| 1777918988 | 9.44° C | 82% | 994.2 hPa | 0 mm | - | 483 W/m² | - |
| 1777918685 | 9.44° C | 83% | 994.1 hPa | 0 mm | - | 334 W/m² | - |
| 1777918382 | 9.44° C | 82% | 993.9 hPa | 0 mm | - | 207 W/m² | - |
| 1777918081 | 10° C | 80% | 993.6 hPa | 0 mm | - | 211 W/m² | - |
| 1777917779 | 10° C | 78% | 993.7 hPa | 0 mm | - | 347 W/m² | - |
| 1777917477 | 10.56° C | 79% | 993.6 hPa | 0 mm | - | 386 W/m² | - |
| 1777917173 | 10.56° C | 78% | 993.5 hPa | 0 mm | - | 811 W/m² | - |
| 1777916871 | 10° C | 81% | 993.6 hPa | 0 mm | - | 723 W/m² | - |
| 1777916569 | 10.56° C | 81% | 993.5 hPa | 0 mm | - | 719 W/m² | - |
| 1777916265 | 10.56° C | 82% | 993.2 hPa | 0 mm | - | 759 W/m² | - |
* Rain latest hour (hover to see other rain measurements)
** Current wind speed in m/s (hover to see current wind gust speed)